Regional Weather Roundup
Issued by NWS Charleston, SC

Current Version | Previous Version | Graphics & Text | Print | Product List | Glossary On
Versions: 1 2 3 4 5 6 7 8 9 10 11 12 13 14 15 16 17 18 19 20 21 22 23 24 25 26 27 28 29 30 31 32 33 34 35 36 37 38 39 40 41 42 43 44 45 46 47 48 49 50
029
ASUS42 KCHS 290627
RWRCHS

REGIONAL WEATHER ROUNDUP
NATIONAL WEATHER SERVICE CHARLESTON SC
200 AM EDT WED MAR 29 2017

NOTE: "FAIR" INDICATES FEW OR NO CLOUDS BELOW 12,000 FEET WITH NO
SIGNIFICANT WEATHER AND/OR OBSTRUCTIONS TO VISIBILITY.

NOT ALL STATIONS ARE QUALITY CONTROLLED. USE DATA WITH CAUTION...
ESPECIALLY DEWPOINT OBSERVATIONS.

SCZ027-030-031-034>040-042>050-290700-
...SOUTHEAST SOUTH CAROLINA...

CITY           SKY/WX    TMP DP  RH WIND       PRES   REMARKS
N CHARLESTON   PTCLDY    65  61  87 SW7       29.95F
6HR MIN TEMP:  63; 6HR MAX TEMP:  67;

WATERFRONT PRK   N/A     66  63  90 SW5       29.94F
JOHNS ISLAND   FAIR      66  63  88 SW6       29.95F
PINOPOLIS        N/A     66  64  94 SW6       29.86S
MONCKS CORNER  FAIR      63  59  88 CALM      29.95S
SUMMERVILLE    FAIR      61  61 100 CALM      29.96S
BEAUFORT MCAS  CLEAR     65  64  97 SW7       29.96F
6HR MIN TEMP:  65; 6HR MAX TEMP:  69;

BEAUFORT ARPT  FAIR      66  63  88 SW6       29.96S
HILTON HEAD IS CLEAR     68  63  83 SW6       29.97F
WALTERBORO     CLEAR     61  61 100 CALM      29.97S
ALLENDALE      FAIR      63  59  88 CALM      29.95F

...SOUTHERN MIDLANDS AND PEE DEE...

CITY           SKY/WX    TMP DP  RH WIND       PRES   REMARKS
GEORGETOWN     FAIR      63  61  94 CALM      29.95F
KINGSTREE      FAIR      59  57  94 CALM      29.96R
ORANGEBURG     CLEAR     60  57  89 SW5       29.96S
6HR MIN TEMP:  60; 6HR MAX TEMP:  77;

BARNWELL       FAIR      61  57  88 CALM      29.97S
AIKEN          FAIR      54  50  87 W3        30.01S
MANNING        FAIR      59  57  94 CALM      29.96S
COLUMBIA       CLEAR     65  54  67 CALM      29.96S
6HR MIN TEMP:  61; 6HR MAX TEMP:  78;

SUMTER         CLEAR     65  55  70 CALM      29.95S
6HR MIN TEMP:  63; 6HR MAX TEMP:  74;

FLORENCE       CLEAR     65  55  70 N6        29.96S
6HR MIN TEMP:  65; 6HR MAX TEMP:  76;

MYRTLE BEACH   CLEAR     64  61  88 W5        29.95S
N MYRTLE BEACH CLEAR     61  61 100 W3        29.93S FOG
6HR MIN TEMP:  61; 6HR MAX TEMP:  67;


$$

GAZ063-065-086>088-099>101-113>116-118-119-134>141-150-290700-
...SOUTHEAST GEORGIA...

CITY           SKY/WX    TMP DP  RH WIND       PRES   REMARKS
SAVANNAH ARPT  CLEAR     65  58  78 CALM      29.98S
6HR MIN TEMP:  65; 6HR MAX TEMP:  78;

HUNTER AAF     CLEAR     65  64  93 CALM      29.95F
6HR MIN TEMP:  65; 6HR MAX TEMP:  78;

FORT STEWART   CLEAR     62  59  88 CALM      29.96S
6HR MIN TEMP:  62; 6HR MAX TEMP:  77;

STATESBORO     CLEAR     62  62 100 CALM      29.97S
SYLVANIA       CLEAR    N/A N/A N/A CALM      29.98F
CLAXTON        FAIR     N/A N/A N/A CALM      29.98S

...CSRA...CENTRAL AND FAR SOUTHEAST GEORGIA...

CITY           SKY/WX    TMP DP  RH WIND       PRES   REMARKS
THOMSON        CLEAR     56  54  93 CALM      30.04S
AUGUSTA-BUSH   CLEAR     60  58  92 CALM      29.97S
6HR MIN TEMP:  59; 6HR MAX TEMP:  75;

AUGUSTA-DANIEL CLEAR     71  53  52 NW3       29.98S
SWAINSBORO     FAIR      61  59  94 CALM      29.99S
VIDALIA        CLEAR     66  61  82 SW5       29.99S
EASTMAN        FAIR      66  54  65 CALM      30.02S
HAZLEHURST     FAIR      70  66  85 SW5       29.99S
ALMA           CLEAR     66  62  87 CALM      30.00S
6HR MIN TEMP:  64; 6HR MAX TEMP:  77;

WAYCROSS       CLEAR     67  65  93 SW3       30.00S
JESUP          FAIR      63  59  88 W3        29.99F
BAXLEY         FAIR      68  68 100 CALM      29.99S
BRUNSWICK      CLEAR     68  63  83 SW5       29.99F
SAINT SIMONS   CLEAR     68  62  81 W6        29.98F
6HR MIN TEMP:  67; 6HR MAX TEMP:  71;


$$

SCZ027-028-034-036>038-045-046-048>050-GAZ119-141-290700-
...LAKE AND SUPPLEMENTAL COASTAL OBSERVATIONS...

STATION/POSITION TIME  TEMP    WIND        PRES    WAVE   SWELL
                       AIR SEA DIR/SP/G            HT/PER HT/PER/DIR
                 (UTC) (F)     (DEG/KT/KT) (MB)    (FT/S) (FT/S/D)
WINYAH BAY       0545   66     320/  7     1014.0S
LAKE MURRAY      0530   66      CALM  /  2 1014.6S
ACE BASIN NERRS  0530   64        CALM     1015.0S
FORT PULASKI     0600   67 66  220/  5/  6 1015.1
SAPELO ISLAND    0600   67     200/  4     1015.0

$$

ANZ835-935-AMZ111-154-330-350-352-354-370-450-454-472-290700-
...C-MAN AND BUOY OBSERVATIONS...

STATION/POSITION TIME  TEMP    WIND        PRES    WAVE   SWELL
                       AIR SEA DIR/SP/G            HT/PER HT/PER/DIR
                 (UTC) (F)     (DEG/KT/KT) (MB)    (FT/S) (FT/S/D)
BUOY 41004       0550   69 71  240/ 17/ 21 1013.6F   5/11   5/130/11
BUOY 41008       0550   66 64  210/ 10/ 12 1015.0F   3/11   2/130/11
FOLLY BEACH CMAN 0600   66     230/  8/ 10 1014.7F
CAPERS NEARSHORE NOT AVBL
FRIPP NEARSHORE  0608   65 64  240/ 10/ 14 1014.5F


STATION/POSITION TIME  TEMP    WIND        PRES    WAVE   SWELL
                       AIR SEA DIR/SP/G            HT/PER HT/PER/DIR
                 (UTC) (F)     (DEG/KT/KT) (MB)    (FT/S) (FT/S/D)
5E ST. MARYS GA  0600      67                N/A     3/11   2/110/11
FRYING PAN BUOY  0610   67 70  260/ 14/ 17 1013.3
BUOY 41025       0550   69 74  300/ 14/ 16 1012.4F   6/ 9   3/140/ 9
CAPE LOOKOUT NC  0600   65     290/  3/  4 1012.6S
BUOY 41002       0550   71 72  220/ 14/ 17 1014.9F   5/10   5/100/10
BUOY 41010       NOT AVBL
ST AUGUSTINE FL  0600   67 68  220/  4/  5 1017.3F


$$




USA.gov is the U.S. government's official web portal to all federal, state and local government web resources and services.